Back to catalog

ONEWEB-0672

AliveCommunicationsPO
NORAD 55831·PAYLOAD·🇬🇧 United Kingdom

Launched Mar 9, 2023 from Cape Canaveral Space Force Station

Loading…

Next Passes (next 24 hours)

TLE

FreshSource: CelesTrak SupGP

Epoch: Sep 14, 2026, 12:14 UTC

1 55831C 23029AM  26257.50986528 -.00000340  00000+0 -83725-3 0  2576
2 55831  87.9137 256.6164 0001929  97.3842  14.6753 13.20770639    18

Track ONEWEB-0672 in real time with AllMySat

Download on the App Store